Showing default

HULIANWANG DIGUI-182, 100207

Orbit data source: Space-Track

HULIANWANG DIGUI-182, 100207 is a payload satellite owned by Zhongguo Xingwang (CN) in LEO that was launched on Tue, 04 Aug 2026 UTC launched from the Wenchang Satellite Launch Center (WSC). Payload-class satellites include a variety of spacecraft equipped with specific instruments for various scientific and technological missions. These include communications satellites like Starlink; space stations such as the ISS; scientific satellites like the Hubble; Earth observation satellites from companies like Planet Labs, Umbra, and HawkEye 360; GPS; miniature CubeSats for education and research; and military/defense satellites.

Loading next visibility...
Identifier
100207, 2026-176E
Orbit
LEO
Country
Flag of CNCN / PRC
Related business
Manufacturer
CAST?
Mission
Operational spacecraft
Bus & Motor
XINGWANG C, Unknown motor
Mass
~700 kg wet, ~700 kg dry
Launch date (UTC)
2026-08-04 (1 month ago)
Launch vehicle
Unknown
Launch site
Wenchang Satellite Launch Center (WSC)
Object type
Payload
Rocket body
Debris
Shape & HBR
BOX + 2 PAN, 5.0 m
Radar Cross Section
Large (>1 m²)

Expand to show TLE details & history
Last TLE update: 9 hours ago

TLE from 9 hours ago
0 HULIANWANG DIGUI-182
1 A0207U 26176E   26251.43220519 -.00000068  00000-0  12144-3 0  9993
2 A0207  49.9876 267.2431 0000124 337.5398  22.5468 13.29326895  4698
Epoch: 2026-09-08T10:22Z
TLE epoch observation values (Epoch: 2026-09-08T10:22:22.528Z)
Latitude
-0.00005°
Longitude
124.15049°
Altitude
1,149.722 km
Speed
7.279 km/s
True Right ascension
17h 48m 58s
True Declination
0° 00' 00"
Sunlit
Object was in daylight at epoch
Visualization orbit readout
Latitude
Unknown
Longitude
Unknown
Altitude
Unknown
Speed
Unknown
Apparent Right ascension
Unknown
Apparent Declination
Unknown
Sunlit
N/A
Visualization observer readout
Local Sidereal Time
11:35:29
Azimuth
Unknown
Elevation
Unknown
Doppler factor
Unknown
Orbital elements
Apogee altitude
1,150.104 km
Perigee altitude
1,149.917 km
Semi-major axis
7,528.147 km
Eccentricity
0.00001
Inclination
49.9876°
RAAN
267.2431°
Arg. of periapsis
337.5398°
True anomaly
22.54734°
Mean anomaly
22.5468°
Eccentric anomaly
22.54707°
Mean motion
3.32285 °/min
Orbital period
108.34 mins
BSTAR
0.00012144
Loading maneuver chart data...
Computing Atmospheric mass density...
Loading historical data...
Loading historical data...
Loading historical data...
Loading historical data...
Loading historical data...
Loading historical data...
Loading historical data...

Documentation

Showing up to 5 results
|